CZ-6A DEB, 60864

Orbit data source: Space-Track

CZ-6A DEB, 60864 is space debris in LEO originally from a launch on Tue, 06 Aug 2024 UTC launched from the Taiyaun Space Center, China (TSC). Debris objects in space refer to the collection of defunct objects orbiting the Earth. Examples of debris include non-operational satellites, rocket bodies, and fragments generated from explosions, collisions, or faulty payload assembly.

Loading next visibility...
Identifier
60864, 2024-140JT
Orbit
LEO
Country
Flag of CNCN / PRC
Related business
Manufacturer
SAST
Mission
Spacecraft
Bus & Motor
Unknown
Mass
Unknown
Launch date (UTC)
2024-08-06 (1 year ago)
Launch vehicle
Unknown
Launch site
Taiyaun Space Center, China (TSC)
Object type
Payload
Rocket body
Debris
Shape & HBR
Unknown shape, 0.1 m
Radar Cross Section
Small (<0.1 m²)

Expand to show TLE details & history
Last TLE update: 2 days ago

TLE from 2 days ago
0 CZ-6A DEB
1 60864U 24140JT  25312.48298356  .00002863  00000-0  10185-2 0  9999
2 60864  89.4184 321.4121 0017433  15.9992 344.1753 14.34064581 63841
Epoch: 2025-11-08T11:35Z
TLE epoch observation values (Epoch: 2025-11-08T11:35:29.779Z)
Latitude
-0.00002°
Longitude
99.62607°
Altitude
769.247 km
Speed
7.476 km/s
True Right ascension
21h 25m 38s
True Declination
0° 00' 00"
Sunlit
Object was in daylight at epoch
Visualization orbit readout
Latitude
Unknown
Longitude
Unknown
Altitude
Unknown
Speed
Unknown
Apparent Right ascension
Unknown
Apparent Declination
Unknown
Sunlit
N/A
Visualization observer readout
Local Sidereal Time
19:54:46
Azimuth
Unknown
Elevation
Unknown
Doppler factor
Unknown
Orbital elements
Apogee altitude
787.576 km
Perigee altitude
762.636 km
Semi-major axis
7,153.243 km
Eccentricity
0.00174
Inclination
89.4184°
RAAN
321.4121°
Arg. of periapsis
15.9992°
True anomaly
344.12071°
Mean anomaly
344.1753°
Eccentric anomaly
344.14802°
Mean motion
3.58747 °/min
Orbital period
100.35 mins
BSTAR
0.0010185
Loading maneuver chart data...
Computing Atmospheric mass density...

Documentation

Showing up to 5 results
|